| time (UTC) | temp F | wind direction | speed knots | gust knots | rain 1hr in | rain 24hr in | rain mn in | humidity % | barometer mb |
| 20260506015507 | 58 | 258 | 1.7 | 2.6 | 0.00 | 0.00 | 0.00 | 76 | 1017.2 |
| 20260506015004 | 58 | 48 | 0.9 | 3.5 | 0.00 | 0.00 | 0.00 | 75 | 1017.5 |
| 20260506014502 | 59 | 29 | 0.9 | 3.5 | 0.00 | 0.00 | 0.00 | 74 | 1017.5 |
| 20260506013957 | 59 | 69 | 0.9 | 2.6 | 0.00 | 0.00 | 0.00 | 74 | 1017.5 |
| 20260506013455 | 59 | 52 | 1.7 | 3.5 | 0.00 | 0.00 | 0.00 | 74 | 1017.5 |
| 20260506012951 | 59 | 83 | 0.9 | 6.1 | 0.00 | 0.00 | 0.00 | 74 | 1017.5 |
| 20260506012448 | 59 | 301 | 3.5 | 3.5 | 0.00 | 0.00 | 0.00 | 74 | 1017.5 |
| 20260506011945 | 59 | 102 | 0.9 | 2.6 | 0.00 | 0.00 | 0.00 | 74 | 1017.5 |
| 20260506011442 | 59 | 210 | 2.6 | 2.6 | 0.00 | 0.00 | 0.00 | 73 | 1017.5 |
| 20260506010939 | 59 | 110 | 0.9 | 5.2 | 0.00 | 0.00 | 0.00 | 74 | 1017.5 |
| 20260506010438 | 59 | 128 | 1.7 | 3.5 | 0.00 | 0.00 | 0.00 | 73 | 1017.5 |
| 20260506005933 | 59 | 354 | 1.7 | 2.6 | 0.00 | 0.00 | 0.00 | 73 | 1017.2 |
| 20260506005432 | 59 | 9 | 1.7 | 5.2 | 0.00 | 0.00 | 0.00 | 72 | 1017.5 |
| 20260506004926 | 60 | 297 | 3.5 | 7.0 | 0.00 | 0.00 | 0.00 | 73 | 1017.2 |
| 20260506004425 | 61 | 121 | 0.0 | 5.2 | 0.00 | 0.00 | 0.00 | 71 | 1017.5 |
| 20260506003920 | 61 | 321 | 1.7 | 3.5 | 0.00 | 0.00 | 0.00 | 70 | 1017.5 |
| 20260506003417 | 61 | 92 | 0.0 | 3.5 | 0.00 | 0.00 | 0.00 | 71 | 1017.5 |
| 20260506002914 | 60 | 73 | 0.9 | 2.6 | 0.00 | 0.00 | 0.00 | 71 | 1017.5 |
| 20260506002410 | 61 | 84 | 0.9 | 3.5 | 0.00 | 0.00 | 0.00 | 71 | 1017.5 |
| 20260506001905 | 62 | 27 | 1.7 | 1.7 | 0.00 | 0.00 | 0.00 | 68 | 1017.5 |
| 20260506001403 | 62 | 110 | 0.0 | 2.6 | 0.00 | 0.00 | 0.00 | 70 | 1017.5 |
| 20260506000900 | 62 | 97 | 0.9 | 1.7 | 0.00 | 0.00 | 0.00 | 70 | 1017.5 |
| 20260506000357 | 63 | 98 | 1.7 | 1.7 | 0.00 | 0.00 | 0.00 | 68 | 1017.5 |
| 20260505235854 | 63 | 84 | 0.9 | 1.7 | 0.00 | 0.00 | 0.00 | 69 | 1017.5 |
| 20260505235352 | 64 | 356 | 4.3 | 5.2 | 0.00 | 0.00 | 0.00 | 68 | 1017.5 |
| 20260505234848 | 64 | 351 | 1.7 | 3.5 | 0.00 | 0.00 | 0.00 | 67 | 1017.5 |
| 20260505234346 | 62 | 123 | 0.0 | 1.7 | 0.00 | 0.00 | 0.00 | 72 | 1017.5 |
| 20260505233843 | 62 | 213 | 1.7 | 2.6 | 0.00 | 0.00 | 0.00 | 72 | 1017.5 |
| 20260505233341 | 63 | 113 | 0.9 | 5.2 | 0.00 | 0.00 | 0.00 | 71 | 1017.9 |
| 20260505232838 | 63 | 311 | 0.9 | 1.7 | 0.00 | 0.00 | 0.00 | 70 | 1017.5 |
| 20260505232336 | 62 | 34 | 1.7 | 2.6 | 0.00 | 0.00 | 0.00 | 71 | 1017.9 |
| 20260505231832 | 63 | 289 | 2.6 | 3.5 | 0.00 | 0.00 | 0.00 | 71 | 1017.9 |
| 20260505231330 | 61 | 320 | 2.6 | 3.5 | 0.00 | 0.00 | 0.00 | 72 | 1017.5 |
| 20260505230828 | 62 | 71 | 1.7 | 2.6 | 0.00 | 0.00 | 0.00 | 71 | 1017.5 |
| 20260505230325 | 62 | 44 | 0.9 | 3.5 | 0.00 | 0.00 | 0.00 | 74 | 1017.5 |
| 20260505225821 | 63 | 20 | 1.7 | 3.5 | 0.00 | 0.00 | 0.00 | 71 | 1017.9 |
| 20260505225319 | 61 | 155 | 0.0 | 1.7 | 0.00 | 0.00 | 0.00 | 73 | 1017.9 |
| 20260505224813 | 61 | 68 | 0.9 | 1.7 | 0.00 | 0.00 | 0.00 | 74 | 1017.9 |
| 20260505224312 | 61 | 86 | 0.0 | 1.7 | 0.00 | 0.00 | 0.00 | 74 | 1017.9 |
| 20260505223808 | 60 | 58 | 1.7 | 2.6 | 0.00 | 0.00 | 0.00 | 75 | 1017.9 |
| 20260505223306 | 60 | 57 | 0.9 | 3.5 | 0.00 | 0.00 | 0.00 | 75 | 1017.9 |
| 20260505222801 | 64 | 82 | 0.9 | 0.9 | 0.00 | 0.00 | 0.00 | 69 | 1017.9 |
| 20260505222257 | 64 | 126 | 1.7 | 2.6 | 0.00 | 0.00 | 0.00 | 69 | 1017.9 |
| 20260505221755 | 64 | 106 | 0.9 | 1.7 | 0.00 | 0.00 | 0.00 | 71 | 1017.9 |
| 20260505221251 | 61 | 296 | 0.9 | 1.7 | 0.00 | 0.00 | 0.00 | 73 | 1017.9 |
| 20260505220748 | 60 | 358 | 1.7 | 2.6 | 0.00 | 0.00 | 0.00 | 74 | 1017.9 |
| 20260505220245 | 62 | 94 | 1.7 | 2.6 | 0.00 | 0.00 | 0.00 | 73 | 1017.9 |
| 20260505215744 | 61 | 105 | 0.0 | 0.9 | 0.00 | 0.00 | 0.00 | 74 | 1018.2 |
| 20260505215241 | 61 | 104 | 0.9 | 0.9 | 0.00 | 0.00 | 0.00 | 73 | 1018.2 |
| 20260505214739 | 61 | 83 | 0.9 | 0.9 | 0.00 | 0.00 | 0.00 | 72 | 1018.2 |
| 20260505214236 | 61 | 140 | 0.0 | 0.9 | 0.00 | 0.00 | 0.00 | 74 | 1018.2 |
| 20260505213733 | 62 | 232 | 2.6 | 2.6 | 0.00 | 0.00 | 0.00 | 72 | 1018.2 |
| 20260505213230 | 62 | 98 | 0.0 | 1.7 | 0.00 | 0.00 | 0.00 | 73 | 1018.2 |
| 20260505212726 | 60 | 185 | 0.0 | 0.9 | 0.00 | 0.00 | 0.00 | 75 | 1018.2 |
| 20260505212224 | 60 | 61 | 0.9 | 1.7 | 0.00 | 0.00 | 0.00 | 76 | 1018.2 |
| 20260505211721 | 59 | 108 | 0.0 | 0.9 | 0.00 | 0.00 | 0.00 | 78 | 1018.2 |
| 20260505211218 | 58 | 103 | 0.9 | 2.6 | 0.00 | 0.00 | 0.00 | 78 | 1018.2 |
| 20260505210714 | 59 | 72 | 1.7 | 2.6 | 0.00 | 0.00 | 0.00 | 77 | 1018.2 |
| 20260505210211 | 59 | 53 | 1.7 | 2.6 | 0.00 | 0.00 | 0.00 | 78 | 1018.2 |
| 20260505205709 | 58 | 56 | 0.9 | 1.7 | 0.00 | 0.00 | 0.00 | 79 | 1018.2 |
| 20260505205207 | 57 | 85 | 1.7 | 1.7 | 0.00 | 0.00 | 0.00 | 81 | 1018.2 |
| 20260505204703 | 57 | 59 | 0.9 | 1.7 | 0.00 | 0.00 | 0.00 | 79 | 1018.2 |
| 20260505204201 | 58 | 2 | 0.9 | 0.9 | 0.00 | 0.00 | 0.00 | 79 | 1018.5 |
| 20260505203658 | 58 | 98 | 0.0 | 0.0 | 0.00 | 0.00 | 0.00 | 80 | 1018.2 |
| 20260505203154 | 57 | 69 | 0.9 | 1.7 | 0.00 | 0.00 | 0.00 | 81 | 1018.2 |
| 20260505202650 | 57 | 94 | 0.0 | 0.9 | 0.00 | 0.00 | 0.00 | 81 | 1018.2 |
| 20260505202147 | 57 | 86 | 0.9 | 1.7 | 0.00 | 0.00 | 0.00 | 81 | 1018.2 |
| 20260505201643 | 56 | 290 | 0.9 | 1.7 | 0.00 | 0.00 | 0.00 | 82 | 1018.2 |
| 20260505201141 | 57 | 317 | 0.9 | 2.6 | 0.00 | 0.00 | 0.00 | 81 | 1018.2 |
| 20260505200639 | 57 | 62 | 0.9 | 0.9 | 0.00 | 0.00 | 0.00 | 83 | 1017.9 |
| 20260505200136 | 55 | 82 | 0.9 | 1.7 | 0.00 | 0.00 | 0.00 | 84 | 1018.2 |
| 20260505195632 | 55 | 10 | 1.7 | 2.6 | 0.00 | 0.00 | 0.00 | 84 | 1018.2 |
| 20260505195129 | 55 | 67 | 0.9 | 2.6 | 0.00 | 0.00 | 0.00 | 84 | 1018.2 |
| 20260505194626 | 55 | 83 | 1.7 | 1.7 | 0.00 | 0.00 | 0.00 | 85 | 1018.2 |
| 20260505194122 | 55 | 63 | 1.7 | 1.7 | 0.00 | 0.00 | 0.00 | 86 | 1018.2 |
| 20260505193619 | 54 | 9 | 1.7 | 2.6 | 0.00 | 0.00 | 0.00 | 86 | 1018.2 |
| 20260505193116 | 54 | 77 | 0.9 | 1.7 | 0.00 | 0.00 | 0.00 | 86 | 1018.2 |
| 20260505192615 | 55 | 35 | 0.9 | 2.6 | 0.00 | 0.00 | 0.00 | 86 | 1018.2 |
| 20260505192112 | 54 | 14 | 1.7 | 1.7 | 0.00 | 0.00 | 0.00 | 87 | 1018.2 |
| 20260505191610 | 54 | 17 | 1.7 | 2.6 | 0.00 | 0.00 | 0.00 | 87 | 1018.2 |
| 20260505191107 | 54 | 27 | 1.7 | 2.6 | 0.00 | 0.00 | 0.00 | 87 | 1018.2 |
| 20260505190603 | 54 | 31 | 0.9 | 1.7 | 0.00 | 0.00 | 0.00 | 88 | 1018.2 |
| 20260505190058 | 54 | 43 | 0.0 | 1.7 | 0.00 | 0.00 | 0.00 | 88 | 1018.2 |
| 20260505185555 | 54 | 54 | 0.9 | 3.5 | 0.00 | 0.00 | 0.00 | 87 | 1018.2 |
| 20260505185051 | 54 | 38 | 0.9 | 1.7 | 0.00 | 0.00 | 0.00 | 88 | 1018.2 |
| 20260505184548 | 54 | 152 | 0.0 | 1.7 | 0.00 | 0.00 | 0.00 | 88 | 1018.2 |
| 20260505184045 | 54 | 67 | 0.9 | 1.7 | 0.00 | 0.00 | 0.00 | 88 | 1018.2 |
| 20260505183542 | 54 | 104 | 0.9 | 1.7 | 0.00 | 0.00 | 0.00 | 87 | 1018.2 |
| 20260505183039 | 54 | 93 | 0.9 | 0.9 | 0.00 | 0.00 | 0.00 | 87 | 1017.9 |
| 20260505182535 | 54 | 101 | 0.9 | 2.6 | 0.00 | 0.00 | 0.00 | 87 | 1018.2 |
| 20260505182032 | 54 | 97 | 0.9 | 2.6 | 0.00 | 0.00 | 0.00 | 87 | 1017.9 |
| 20260505181529 | 54 | 94 | 0.9 | 1.7 | 0.00 | 0.00 | 0.00 | 87 | 1017.9 |
| 20260505181026 | 54 | 27 | 0.9 | 1.7 | 0.00 | 0.00 | 0.00 | 87 | 1018.2 |
| 20260505180522 | 54 | 97 | 0.9 | 0.9 | 0.00 | 0.00 | 0.00 | 87 | 1017.9 |
| 20260505180020 | 54 | 85 | 0.9 | 1.7 | 0.00 | 0.00 | 0.00 | 86 | 1017.9 |
| 20260505175515 | 54 | 358 | 0.0 | 1.7 | 0.00 | 0.00 | 0.00 | 85 | 1017.9 |
| 20260505175012 | 55 | 10 | 0.9 | 1.7 | 0.00 | 0.00 | 0.00 | 84 | 1017.9 |
| 20260505174509 | 55 | 103 | 1.7 | 2.6 | 0.00 | 0.00 | 0.00 | 84 | 1017.5 |
| 20260505174005 | 55 | 156 | 0.9 | 0.9 | 0.00 | 0.00 | 0.00 | 85 | 1017.9 |
| 20260505173501 | 55 | 101 | 1.7 | 3.5 | 0.00 | 0.00 | 0.00 | 86 | 1017.9 |
| 20260505172958 | 55 | 105 | 3.5 | 5.2 | 0.00 | 0.00 | 0.00 | 86 | 1017.9 |
| 20260505172456 | 55 | 113 | 0.9 | 2.6 | 0.00 | 0.00 | 0.00 | 86 | 1017.5 |
| 20260505171951 | 54 | 194 | 1.7 | 3.5 | 0.00 | 0.00 | 0.00 | 86 | 1017.5 |
| 20260505171447 | 54 | 175 | 2.6 | 6.1 | 0.00 | 0.00 | 0.00 | 86 | 1017.9 |
| 20260505170944 | 54 | 169 | 2.6 | 5.2 | 0.00 | 0.00 | 0.00 | 87 | 1017.9 |
| 20260505170441 | 54 | 122 | 1.7 | 5.2 | 0.00 | 0.00 | 0.00 | 87 | 1017.5 |
| 20260505165936 | 54 | 166 | 4.3 | 5.2 | 0.00 | 0.00 | 0.00 | 86 | 1017.5 |
| 20260505165432 | 54 | 154 | 0.9 | 1.7 | 0.00 | 0.00 | 0.00 | 87 | 1017.9 |
| 20260505164928 | 54 | 159 | 3.5 | 5.2 | 0.00 | 0.00 | 0.00 | 87 | 1017.9 |
| 20260505164425 | 54 | 167 | 0.9 | 1.7 | 0.00 | 0.00 | 0.00 | 88 | 1017.5 |
| 20260505163923 | 54 | 119 | 1.7 | 3.5 | 0.00 | 0.00 | 0.00 | 88 | 1017.5 |
| 20260505163422 | 54 | 160 | 1.7 | 3.5 | 0.00 | 0.00 | 0.00 | 88 | 1017.5 |
| 20260505162920 | 54 | 117 | 0.9 | 5.2 | 0.00 | 0.00 | 0.00 | 88 | 1017.5 |
| 20260505162415 | 54 | 126 | 2.6 | 2.6 | 0.00 | 0.00 | 0.00 | 88 | 1017.5 |
| 20260505161912 | 54 | 122 | 0.9 | 1.7 | 0.00 | 0.00 | 0.00 | 88 | 1017.5 |
| 20260505161409 | 54 | 152 | 1.7 | 3.5 | 0.00 | 0.00 | 0.00 | 89 | 1017.5 |
| 20260505160907 | 54 | 162 | 1.7 | 2.6 | 0.00 | 0.00 | 0.00 | 89 | 1017.5 |
| 20260505160405 | 54 | 151 | 1.7 | 3.5 | 0.00 | 0.00 | 0.00 | 89 | 1017.5 |
| 20260505153343 | 53 | 119 | 0.0 | 0.9 | 0.00 | 0.00 | 0.00 | 91 | 1017.2 |
| 20260505152840 | 53 | 110 | 0.0 | 0.9 | 0.00 | 0.00 | 0.00 | 91 | 1017.5 |
| 20260505152337 | 53 | 108 | 0.0 | 0.9 | 0.00 | 0.00 | 0.00 | 91 | 1017.2 |
| 20260505151832 | 53 | 106 | 0.0 | 0.0 | 0.00 | 0.00 | 0.00 | 91 | 1017.2 |
| 20260505151328 | 53 | 108 | 0.0 | 0.9 | 0.00 | 0.00 | 0.00 | 91 | 1017.2 |
| 20260505150825 | 53 | 95 | 0.0 | 0.9 | 0.00 | 0.00 | 0.00 | 91 | 1017.2 |
| 20260505150322 | 53 | 108 | 0.0 | 0.0 | 0.00 | 0.00 | 0.00 | 92 | 1017.2 |
| 20260505140247 | 52 | 115 | 0.0 | 0.0 | 0.00 | 0.00 | 0.00 | 92 | 1016.9 |
| 20260505130211 | 51 | 112 | 0.0 | 0.0 | 0.00 | 0.00 | 0.00 | 93 | 1015.8 |
| 20260505124701 | 51 | 97 | 0.0 | 0.0 | 0.00 | 0.00 | 0.00 | 93 | 1015.8 |
| 20260505124157 | 51 | 112 | 0.0 | 0.0 | 0.00 | 0.00 | 0.00 | 93 | 1015.8 |
| 20260505123653 | 51 | 112 | 0.0 | 0.0 | 0.00 | 0.00 | 0.00 | 93 | 1015.8 |
| 20260505123150 | 51 | 105 | 0.0 | 0.9 | 0.00 | 0.00 | 0.00 | 93 | 1015.8 |
| 20260505122647 | 51 | 89 | 0.0 | 0.0 | 0.00 | 0.00 | 0.00 | 93 | 1015.8 |
| 20260505122144 | 51 | 114 | 0.0 | 0.0 | 0.00 | 0.00 | 0.00 | 93 | 1015.8 |
| 20260505121641 | 51 | 81 | 0.9 | 0.9 | 0.00 | 0.00 | 0.00 | 94 | 1015.8 |
| 20260505121137 | 50 | 102 | 0.0 | 0.0 | 0.00 | 0.00 | 0.00 | 94 | 1015.5 |
| 20260505120633 | 50 | 152 | 0.9 | 1.7 | 0.00 | 0.00 | 0.00 | 94 | 1015.8 |
| 20260505120129 | 50 | 106 | 0.0 | 0.0 | 0.00 | 0.00 | 0.00 | 94 | 1015.8 |
| 20260505115624 | 50 | 112 | 0.0 | 0.0 | 0.00 | 0.00 | 0.00 | 94 | 1015.8 |
| 20260505115122 | 50 | 127 | 0.0 | 0.0 | 0.00 | 0.00 | 0.00 | 94 | 1015.5 |
| 20260505114618 | 50 | 115 | 0.0 | 0.0 | 0.00 | 0.00 | 0.00 | 94 | 1015.5 |
| 20260505114115 | 50 | 120 | 0.0 | 1.7 | 0.00 | 0.00 | 0.00 | 94 | 1015.5 |
| 20260505113611 | 50 | 175 | 0.9 | 1.7 | 0.00 | 0.00 | 0.00 | 94 | 1015.5 |
| 20260505113108 | 50 | 119 | 0.0 | 1.7 | 0.00 | 0.00 | 0.00 | 94 | 1015.5 |
| 20260505112604 | 50 | 134 | 2.6 | 3.5 | 0.00 | 0.00 | 0.00 | 94 | 1015.5 |
| 20260505112103 | 50 | 130 | 0.0 | 3.5 | 0.00 | 0.00 | 0.00 | 94 | 1015.2 |
| 20260505111601 | 50 | 142 | 1.7 | 2.6 | 0.00 | 0.00 | 0.00 | 94 | 1015.2 |
| 20260505111057 | 50 | 348 | 0.0 | 1.7 | 0.00 | 0.00 | 0.00 | 94 | 1015.5 |
| 20260505110554 | 50 | 348 | 0.0 | 0.0 | 0.00 | 0.00 | 0.00 | 94 | 1015.2 |
| 20260505102027 | 48 | 348 | 0.0 | 0.0 | 0.00 | 0.00 | 0.00 | 93 | 1015.2 |
| 20260505101525 | 48 | 348 | 0.0 | 0.0 | 0.00 | 0.00 | 0.00 | 93 | 1015.2 |
| 20260505101021 | 48 | 348 | 0.0 | 0.0 | 0.00 | 0.00 | 0.00 | 93 | 1015.2 |
| 20260505100518 | 48 | 348 | 0.0 | 0.0 | 0.00 | 0.00 | 0.00 | 93 | 1014.8 |
| 20260505100015 | 48 | 348 | 0.0 | 0.0 | 0.00 | 0.00 | 0.00 | 93 | 1015.2 |
| 20260505095511 | 49 | 348 | 0.0 | 0.0 | 0.00 | 0.00 | 0.00 | 92 | 1015.2 |
| 20260505095008 | 49 | 348 | 0.0 | 0.0 | 0.00 | 0.00 | 0.00 | 92 | 1015.2 |
| 20260505094504 | 49 | 348 | 0.0 | 0.0 | 0.00 | 0.00 | 0.00 | 92 | 1014.8 |
| 20260505094000 | 49 | 348 | 0.0 | 0.9 | 0.00 | 0.00 | 0.00 | 92 | 1014.8 |
| 20260505093457 | 49 | 348 | 0.0 | 0.9 | 0.00 | 0.00 | 0.00 | 92 | 1014.8 |
| 20260505092954 | 49 | 348 | 0.0 | 0.0 | 0.00 | 0.00 | 0.00 | 92 | 1014.8 |
| 20260505092452 | 50 | 348 | 0.0 | 0.0 | 0.00 | 0.00 | 0.00 | 92 | 1014.8 |
| 20260505091949 | 50 | 348 | 0.0 | 0.9 | 0.00 | 0.00 | 0.00 | 92 | 1014.8 |
| 20260505091447 | 50 | 347 | 0.0 | 0.9 | 0.00 | 0.00 | 0.00 | 92 | 1014.8 |
| 20260505090944 | 50 | 347 | 0.9 | 0.9 | 0.00 | 0.00 | 0.00 | 92 | 1014.8 |
| 20260505090443 | 50 | 347 | 0.0 | 0.9 | 0.00 | 0.00 | 0.00 | 92 | 1014.8 |
| 20260505085939 | 50 | 347 | 0.9 | 0.9 | 0.00 | 0.00 | 0.00 | 92 | 1014.8 |
| 20260505085437 | 50 | 347 | 0.0 | 0.9 | 0.00 | 0.00 | 0.00 | 91 | 1014.5 |
| 20260505084935 | 50 | 347 | 0.0 | 0.0 | 0.00 | 0.00 | 0.00 | 91 | 1014.8 |
| 20260505084434 | 50 | 347 | 0.0 | 0.0 | 0.00 | 0.00 | 0.00 | 91 | 1014.5 |
| 20260505083931 | 50 | 347 | 0.0 | 0.9 | 0.00 | 0.00 | 0.00 | 91 | 1014.5 |
| 20260505083428 | 50 | 347 | 0.0 | 0.9 | 0.00 | 0.00 | 0.00 | 91 | 1014.5 |
| 20260505082924 | 50 | 347 | 0.9 | 1.7 | 0.00 | 0.00 | 0.00 | 91 | 1014.5 |
| 20260505082420 | 50 | 347 | 0.9 | 0.9 | 0.00 | 0.00 | 0.00 | 91 | 1014.5 |
| 20260505081917 | 50 | 348 | 0.9 | 1.7 | 0.00 | 0.00 | 0.00 | 91 | 1014.5 |
| 20260505081414 | 50 | 348 | 0.9 | 0.9 | 0.00 | 0.00 | 0.00 | 91 | 1014.5 |
| 20260505080911 | 50 | 348 | 0.0 | 0.0 | 0.00 | 0.00 | 0.00 | 91 | 1014.5 |
| 20260505080407 | 50 | 348 | 0.9 | 0.9 | 0.00 | 0.00 | 0.00 | 91 | 1014.5 |
| 20260505075902 | 50 | 347 | 0.0 | 1.7 | 0.00 | 0.00 | 0.00 | 91 | 1014.5 |
| 20260505075359 | 50 | 348 | 0.0 | 1.7 | 0.00 | 0.00 | 0.00 | 90 | 1014.5 |
| 20260505074857 | 50 | 346 | 0.9 | 0.9 | 0.00 | 0.00 | 0.00 | 90 | 1014.5 |
| 20260505074354 | 50 | 346 | 0.0 | 0.9 | 0.00 | 0.00 | 0.00 | 90 | 1014.5 |
| 20260505073851 | 50 | 346 | 0.0 | 0.9 | 0.00 | 0.00 | 0.00 | 90 | 1014.5 |
| 20260505073349 | 50 | 346 | 0.0 | 0.0 | 0.00 | 0.00 | 0.00 | 90 | 1014.1 |
| 20260505072846 | 50 | 346 | 0.0 | 0.9 | 0.00 | 0.00 | 0.00 | 89 | 1014.1 |
| 20260505072342 | 50 | 346 | 0.0 | 0.0 | 0.00 | 0.00 | 0.00 | 89 | 1014.1 |
| 20260505071838 | 50 | 346 | 0.0 | 0.0 | 0.00 | 0.00 | 0.00 | 89 | 1014.1 |
| 20260505071334 | 51 | 346 | 0.0 | 0.0 | 0.00 | 0.00 | 0.00 | 89 | 1014.1 |
| 20260505070833 | 51 | 346 | 0.0 | 0.9 | 0.00 | 0.00 | 0.00 | 89 | 1014.1 |
| 20260505070329 | 51 | 346 | 0.9 | 0.9 | 0.00 | 0.00 | 0.00 | 88 | 1014.1 |
| 20260505065824 | 51 | 346 | 0.0 | 0.9 | 0.00 | 0.00 | 0.00 | 88 | 1014.1 |
| 20260505065321 | 51 | 346 | 0.9 | 2.6 | 0.00 | 0.00 | 0.00 | 88 | 1014.1 |
| 20260505064818 | 51 | 346 | 0.9 | 1.7 | 0.00 | 0.00 | 0.00 | 88 | 1013.8 |
| 20260505064315 | 51 | 346 | 0.9 | 1.7 | 0.00 | 0.00 | 0.00 | 88 | 1013.8 |
| 20260505063813 | 51 | 346 | 0.9 | 0.9 | 0.00 | 0.00 | 0.00 | 87 | 1013.8 |
| 20260505063309 | 51 | 346 | 0.9 | 1.7 | 0.00 | 0.00 | 0.00 | 87 | 1013.8 |
| 20260505062806 | 52 | 346 | 0.0 | 0.9 | 0.00 | 0.00 | 0.00 | 87 | 1013.8 |
| 20260505062304 | 52 | 347 | 0.9 | 0.9 | 0.00 | 0.00 | 0.00 | 86 | 1013.8 |
| 20260505061800 | 52 | 17 | 0.9 | 1.7 | 0.00 | 0.00 | 0.00 | 86 | 1013.8 |
| 20260505061258 | 52 | 91 | 0.9 | 1.7 | 0.00 | 0.00 | 0.00 | 86 | 1013.8 |
| 20260505060755 | 52 | 18 | 0.9 | 2.6 | 0.00 | 0.00 | 0.00 | 86 | 1013.8 |
| 20260505060252 | 52 | 112 | 0.0 | 0.9 | 0.00 | 0.00 | 0.00 | 85 | 1013.5 |
| 20260505055747 | 52 | 106 | 0.0 | 1.7 | 0.00 | 0.00 | 0.00 | 85 | 1013.5 |
| 20260505055245 | 53 | 5 | 1.7 | 2.6 | 0.00 | 0.00 | 0.00 | 84 | 1013.5 |
| 20260505054742 | 53 | 124 | 0.0 | 1.7 | 0.00 | 0.00 | 0.00 | 84 | 1013.5 |
| 20260505054239 | 53 | 82 | 0.9 | 0.9 | 0.00 | 0.00 | 0.00 | 84 | 1013.5 |
| 20260505053738 | 53 | 53 | 0.9 | 2.6 | 0.00 | 0.00 | 0.00 | 83 | 1013.5 |
| 20260505053234 | 53 | 112 | 0.9 | 0.9 | 0.00 | 0.00 | 0.00 | 83 | 1013.5 |
| 20260505052731 | 53 | 92 | 0.9 | 1.7 | 0.00 | 0.00 | 0.00 | 83 | 1013.5 |
| 20260505052228 | 53 | 75 | 0.0 | 0.9 | 0.00 | 0.00 | 0.00 | 83 | 1013.1 |
| 20260505051725 | 53 | 75 | 0.0 | 0.0 | 0.00 | 0.00 | 0.00 | 82 | 1013.1 |
| 20260505051223 | 53 | 154 | 0.0 | 0.9 | 0.00 | 0.00 | 0.00 | 82 | 1013.1 |
| 20260505050721 | 54 | 104 | 0.0 | 0.9 | 0.00 | 0.00 | 0.00 | 81 | 1013.1 |
| 20260505050219 | 54 | 113 | 0.0 | 0.9 | 0.00 | 0.00 | 0.00 | 81 | 1013.1 |
| 20260505041648 | 55 | 104 | 0.0 | 0.9 | 0.00 | 0.00 | 0.00 | 77 | 1012.5 |
| 20260505041146 | 56 | 121 | 0.0 | 1.7 | 0.00 | 0.00 | 0.00 | 77 | 1012.8 |
| 20260505040643 | 56 | 124 | 0.0 | 0.9 | 0.00 | 0.00 | 0.00 | 77 | 1012.8 |
| 20260505040140 | 56 | 154 | 0.0 | 0.9 | 0.00 | 0.00 | 0.00 | 76 | 1012.5 |
| 20260505035636 | 57 | 130 | 0.0 | 0.9 | 0.00 | 0.00 | 0.00 | 76 | 1012.5 |
| 20260505035132 | 57 | 36 | 0.9 | 1.7 | 0.00 | 0.00 | 0.00 | 75 | 1012.5 |
| 20260505034629 | 57 | 118 | 0.0 | 1.7 | 0.00 | 0.00 | 0.00 | 75 | 1012.5 |
| 20260505034126 | 57 | 113 | 0.0 | 1.7 | 0.00 | 0.00 | 0.00 | 75 | 1012.5 |
| 20260505033623 | 57 | 136 | 0.0 | 1.7 | 0.00 | 0.00 | 0.00 | 74 | 1012.1 |
| 20260505033121 | 58 | 86 | 0.9 | 1.7 | 0.00 | 0.00 | 0.00 | 73 | 1012.1 |
| 20260505032619 | 58 | 106 | 0.0 | 1.7 | 0.00 | 0.00 | 0.00 | 73 | 1012.5 |
| 20260505032115 | 58 | 102 | 0.9 | 1.7 | 0.00 | 0.00 | 0.00 | 73 | 1012.1 |
| 20260505031613 | 59 | 242 | 1.7 | 1.7 | 0.00 | 0.00 | 0.00 | 72 | 1012.1 |
| 20260505031108 | 59 | 173 | 0.0 | 1.7 | 0.00 | 0.00 | 0.00 | 71 | 1012.1 |
| 20260505030606 | 59 | 109 | 0.0 | 1.7 | 0.00 | 0.00 | 0.00 | 70 | 1012.1 |
| 20260505025557 | 60 | 188 | 0.9 | 5.2 | 0.00 | 0.00 | 0.00 | 69 | 1011.8 |
| 20260505025056 | 61 | 263 | 1.7 | 3.5 | 0.00 | 0.00 | 0.00 | 68 | 1011.8 |
| 20260505024553 | 61 | 280 | 0.9 | 1.7 | 0.00 | 0.00 | 0.00 | 67 | 1011.8 |
| 20260505024045 | 61 | 307 | 1.7 | 3.5 | 0.00 | 0.00 | 0.00 | 66 | 1011.3 |
| 20260505023542 | 62 | 218 | 2.6 | 3.5 | 0.00 | 0.00 | 0.00 | 66 | 1011.8 |
| 20260505023039 | 62 | 189 | 0.9 | 1.7 | 0.00 | 0.00 | 0.00 | 65 | 1011.8 |
| 20260505022536 | 62 | 163 | 0.0 | 6.1 | 0.00 | 0.00 | 0.00 | 64 | 1011.8 |
| 20260505022033 | 62 | 343 | 0.9 | 2.6 | 0.00 | 0.00 | 0.00 | 64 | 1011.8 |
| 20260505021529 | 63 | 116 | 0.9 | 2.6 | 0.00 | 0.00 | 0.00 | 63 | 1011.8 |
| 20260505021026 | 63 | 287 | 1.7 | 5.2 | 0.00 | 0.00 | 0.00 | 63 | 1012.1 |
| 20260505020520 | 64 | 120 | 0.9 | 7.0 | 0.00 | 0.00 | 0.00 | 63 | 1012.1 |
| 20260505020018 | 64 | 17 | 1.7 | 3.5 | 0.00 | 0.00 | 0.00 | 62 | 1012.1 |